START_TIME,STEP,MOV.,M29,t_acc.,H22,t_acc.,H26,t_acc.,H30,t_acc.
1989-08-27T15:00:32.440 ,6,0,0.,24.0,0.,24.0,0.,24.0,0.,24.0
1989-08-27T15:00:56.440 ,7,1,0.,24.0,0.,24.0,0.,24.0,0.,24.0
1989-08-27T15:01:20.440 ,7,0,0.,24.0,0.,24.0,0.,24.0,0.,24.0
1989-08-27T15:01:44.440 ,7,1,0.,24.0,0.,24.0,0.,24.0,0.,24.0
1989-08-27T15:02:08.440 ,7,0,0.,24.0,0.,24.0,0.,24.0,0.,24.0
1989-08-27T15:02:32.440 ,6,1,0.,24.0,0.,24.0,0.,24.0,0.,24.0
1989-08-27T15:02:56.440 ,6,0,0.,24.0,0.,24.0,0.,24.0,0.,24.0
1989-08-27T15:03:20.440 ,5,1,0.,24.0,0.,24.0,0.,24.0,0.,24.0
1989-08-27T15:03:44.440 ,5,0,0.,24.0,0.,24.0,0.,24.0,0.,24.0
1989-08-27T15:04:08.440 ,4,1,0.,24.0,0.,24.0,0.,24.0,0.,24.0
1989-08-27T15:04:32.440 ,4,0,0.,24.0,0.,24.0,0.,24.0,0.,24.0
1989-08-27T15:04:56.440 ,3,1,0.,24.0,0.,24.0,0.,24.0,0.,24.0
1989-08-27T15:05:20.440 ,3,0,0.,24.0,0.,24.0,0.,24.0,0.,24.0
1989-08-27T15:05:44.440 ,2,1,0.,24.0,0.,24.0,0.,24.0,0.,24.0
1989-08-27T15:06:08.440 ,2,0,0.,24.0,0.,24.0,0.,24.0,0.,24.0
1989-08-27T15:06:32.440 ,1,1,0.,24.0,0.,24.0,0.,24.0,0.,24.0
1989-08-27T15:06:56.440 ,1,0,0.,24.0,0.,24.0,0.,24.0,0.,24.0
1989-08-27T15:07:20.440 ,0,1,0.,24.0,0.,24.0,0.,24.0,0.,24.0
1989-08-27T15:07:44.440 ,0,0,0.,24.0,0.,24.0,0.,24.0,0.,24.0
1989-08-27T15:08:08.440 ,0,1,0.,24.0,0.,24.0,0.,24.0,0.,24.0
1989-08-27T15:08:32.440 ,0,0,0.,24.0,0.,24.0,0.,24.0,0.,24.0
1989-08-27T15:08:56.440 ,1,1,0.,24.0,0.,24.0,0.,24.0,0.,24.0
1989-08-27T15:09:20.440 ,1,0,0.,24.0,0.,24.0,0.,24.0,0.,24.0
1989-08-27T15:09:44.440 ,2,1,0.,24.0,0.,24.0,0.,24.0,0.,24.0
1989-08-27T15:10:08.440 ,2,0,0.,24.0,0.,24.0,0.,24.0,0.,24.0
1989-08-27T15:10:32.440 ,3,1,0.,24.0,0.,24.0,0.,24.0,0.,24.0
1989-08-27T15:10:56.440 ,3,0,0.,24.0,0.,24.0,0.,24.0,0.,24.0
1989-08-27T15:11:20.440 ,4,1,0.,24.0,0.,24.0,0.,24.0,0.,24.0
1989-08-27T15:11:44.440 ,4,0,0.,24.0,0.,24.0,0.,24.0,0.,24.0
1989-08-27T15:12:08.440 ,5,1,0.,24.0,0.,24.0,0.,24.0,0.,24.0
1989-08-27T15:12:32.440 ,5,0,0.,24.0,0.,24.0,0.,24.0,0.,24.0
1989-08-27T15:12:56.440 ,6,1,0.,24.0,0.,24.0,0.,24.0,0.,24.0
1989-08-27T15:13:20.440 ,6,0,0.,24.0,0.,24.0,0.,24.0,0.,24.0
1989-08-27T15:13:44.440 ,7,1,0.,24.0,0.,24.0,0.,24.0,0.,24.0
1989-08-27T15:14:08.440 ,7,0,0.,24.0,0.,24.0,0.,24.0,0.,24.0
1989-08-27T15:14:32.440 ,7,1,0.,24.0,0.,24.0,0.,24.0,0.,24.0
1989-08-27T15:14:56.440 ,7,0,0.,24.0,0.,24.0,0.,24.0,0.,24.0
1989-08-27T15:15:20.430 ,6,1,0.,24.0,0.,24.0,0.,24.0,0.,24.0
1989-08-27T15:15:44.430 ,6,0,0.,24.0,0.,24.0,0.,24.0,0.,24.0
1989-08-27T15:16:08.430 ,5,1,0.,24.0,0.,24.0,0.,24.0,0.,24.0
1989-08-27T15:16:32.430 ,5,0,0.,24.0,0.,24.0,0.,24.0,0.,24.0
1989-08-27T15:16:56.430 ,4,1,0.,24.0,0.,24.0,0.,24.0,0.,24.0
1989-08-27T15:17:20.440 ,4,0,0.,24.0,0.,24.0,0.,24.0,0.,24.0
1989-08-27T15:17:44.440 ,3,1,0.,24.0,0.,24.0,0.,24.0,0.,24.0
1989-08-27T15:18:08.440 ,3,0,0.,24.0,0.,24.0,0.,24.0,0.,24.0
1989-08-27T15:18:32.440 ,2,1,0.,24.0,0.,24.0,0.,24.0,0.,24.0
1989-08-27T15:18:56.440 ,2,0,0.,24.0,0.,24.0,0.,24.0,0.,24.0
1989-08-27T15:19:20.440 ,1,1,0.,24.0,0.,24.0,0.,24.0,0.,24.0
1989-08-27T15:19:44.440 ,1,0,0.,24.0,0.,24.0,0.,24.0,0.,24.0
1989-08-27T15:20:08.440 ,0,1,0.,24.0,0.,24.0,0.,24.0,0.,24.0
1989-08-27T15:20:32.440 ,0,0,0.,24.0,0.,24.0,0.,24.0,0.,24.0
1989-08-27T15:20:56.440 ,0,1,0.,24.0,0.,24.0,0.,24.0,0.,24.0
1989-08-27T15:21:20.440 ,0,0,0.,24.0,0.,24.0,0.,24.0,0.,24.0
1989-08-27T15:21:44.440 ,1,1,0.,24.0,0.,24.0,0.,24.0,0.,24.0
1989-08-27T15:22:08.440 ,1,0,0.,24.0,0.,24.0,0.,24.0,0.,24.0
1989-08-27T15:22:32.440 ,2,1,0.,24.0,0.,24.0,0.,24.0,0.,24.0
1989-08-27T15:22:56.440 ,2,0,0.,24.0,0.,24.0,0.,24.0,0.,24.0
1989-08-27T15:23:20.440 ,3,1,0.,24.0,0.,24.0,0.,24.0,0.,24.0
1989-08-27T15:23:44.440 ,3,0,0.,24.0,0.,24.0,0.,24.0,0.,24.0
1989-08-27T15:24:08.440 ,4,1,0.,24.0,0.,24.0,0.,24.0,0.,24.0
1989-08-27T15:24:32.440 ,4,0,0.,24.0,0.,24.0,0.,24.0,0.,24.0
1989-08-27T15:24:56.440 ,5,1,0.,24.0,0.,24.0,0.,24.0,0.,24.0
1989-08-27T15:25:20.440 ,5,0,0.,24.0,0.,24.0,0.,24.0,0.,24.0
1989-08-27T15:25:44.440 ,6,1,0.,24.0,0.,24.0,0.,24.0,0.,24.0
1989-08-27T15:26:08.440 ,6,0,0.,24.0,0.,24.0,0.,24.0,0.,24.0
1989-08-27T15:26:32.440 ,7,1,0.,24.0,0.,24.0,0.,24.0,0.,24.0
1989-08-27T15:26:56.440 ,7,0,0.,24.0,0.,24.0,0.,24.0,0.,24.0
1989-08-27T15:27:20.440 ,7,1,0.,24.0,0.,24.0,0.,24.0,0.,24.0
1989-08-27T15:27:44.440 ,7,0,0.,24.0,0.,24.0,0.,24.0,0.,24.0
1989-08-27T15:28:08.430 ,6,1,0.,24.0,0.,24.0,0.,24.0,0.,24.0
1989-08-27T15:28:32.430 ,6,0,0.,24.0,0.,24.0,0.,24.0,0.,24.0
1989-08-27T15:28:56.430 ,5,1,0.,24.0,0.,24.0,0.,24.0,0.,24.0
1989-08-27T15:29:20.430 ,5,0,0.,24.0,0.,24.0,0.,24.0,0.,24.0
1989-08-27T15:29:44.430 ,4,1,0.,24.0,0.,24.0,0.,24.0,0.,24.0
1989-08-27T15:30:08.430 ,4,0,0.,24.0,0.,24.0,0.,24.0,0.,24.0
1989-08-27T15:30:32.430 ,3,1,0.,24.0,0.,24.0,0.,24.0,0.,24.0
1989-08-27T15:30:56.430 ,3,0,0.,24.0,0.,24.0,0.,24.0,0.,24.0
1989-08-27T15:31:20.430 ,2,1,0.,24.0,0.,24.0,0.,24.0,0.,24.0
1989-08-27T15:31:44.430 ,2,0,0.,24.0,0.,24.0,0.,24.0,0.,24.0
1989-08-27T15:32:08.430 ,1,1,0.,24.0,0.,24.0,0.,24.0,0.,24.0
1989-08-27T15:32:32.430 ,1,0,0.,24.0,0.,24.0,0.,24.0,0.,24.0
1989-08-27T15:32:56.430 ,0,1,0.,24.0,0.,24.0,0.,24.0,0.,24.0
1989-08-27T15:33:20.430 ,0,0,0.,24.0,0.,24.0,0.,24.0,0.,24.0
1989-08-27T15:33:44.430 ,0,1,0.,24.0,0.,24.0,0.,24.0,0.,24.0
1989-08-27T15:34:08.430 ,0,0,0.,24.0,0.,24.0,0.,24.0,0.,24.0
1989-08-27T15:34:32.430 ,1,1,0.,24.0,0.,24.0,0.,24.0,0.,24.0
1989-08-27T15:34:56.430 ,1,0,0.,24.0,0.,24.0,0.,24.0,0.,24.0
1989-08-27T15:35:20.430 ,2,1,0.,24.0,0.,24.0,0.,24.0,0.,24.0
1989-08-27T15:35:44.430 ,2,0,0.,24.0,0.,24.0,0.,24.0,0.,24.0
1989-08-27T15:36:08.430 ,3,1,0.,24.0,0.,24.0,0.,24.0,0.,24.0
1989-08-27T15:36:32.430 ,3,0,0.,24.0,0.,24.0,0.,24.0,0.,24.0
1989-08-27T15:36:56.430 ,4,1,0.,24.0,0.,24.0,0.,24.0,0.,24.0
1989-08-27T15:37:20.430 ,4,0,0.,24.0,0.,24.0,0.,24.0,0.,24.0
1989-08-27T15:37:44.430 ,5,1,0.,24.0,0.,24.0,0.,24.0,0.,24.0
1989-08-27T15:38:08.430 ,5,0,0.,24.0,0.,24.0,0.,24.0,0.,24.0
1989-08-27T15:38:32.430 ,6,1,0.,24.0,0.,24.0,0.,24.0,0.,24.0
1989-08-27T15:38:56.430 ,6,0,0.,24.0,0.,24.0,0.,24.0,0.,24.0
1989-08-27T15:39:20.430 ,7,1,0.,24.0,0.,24.0,0.,24.0,0.,24.0
1989-08-27T15:39:44.430 ,7,0,0.,24.0,0.,24.0,0.,24.0,0.,24.0
1989-08-27T15:40:08.430 ,7,1,0.,24.0,0.,24.0,0.,24.0,0.,24.0
1989-08-27T15:40:32.430 ,7,0,0.,24.0,0.,24.0,0.,24.0,0.,24.0
1989-08-27T15:40:56.430 ,6,1,0.,24.0,0.,24.0,0.,24.0,0.,24.0
1989-08-27T15:41:20.430 ,6,0,0.,24.0,0.,24.0,0.,24.0,0.,24.0
1989-08-27T15:41:44.430 ,5,1,0.,24.0,0.,24.0,0.,24.0,0.,24.0
1989-08-27T15:42:08.430 ,5,0,0.,24.0,0.,24.0,0.,24.0,0.,24.0
1989-08-27T15:42:32.430 ,4,1,0.,24.0,0.,24.0,0.,24.0,0.,24.0
1989-08-27T15:42:56.430 ,4,0,0.,24.0,0.,24.0,0.,24.0,0.,24.0
1989-08-27T15:43:20.430 ,3,1,0.,24.0,0.,24.0,0.,24.0,0.,24.0
1989-08-27T15:43:44.430 ,0,0,,0,,0,,0,,0
1989-08-27T15:43:48.030 ,0,0,0.,24.0,0.,24.0,0.,24.0,0.,24.0
1989-08-27T15:44:08.430 ,2,1,0.,24.0,0.,24.0,0.,24.0,0.,24.0
1989-08-27T15:44:32.430 ,2,0,0.,24.0,0.,24.0,0.,24.0,0.,24.0
1989-08-27T15:44:56.430 ,1,1,0.,24.0,0.,24.0,0.,24.0,0.,24.0
1989-08-27T15:45:20.430 ,1,0,0.,24.0,0.,24.0,0.,24.0,0.,24.0
1989-08-27T15:45:44.430 ,0,1,0.,24.0,0.,24.0,0.,24.0,0.,24.0
1989-08-27T15:46:08.430 ,0,0,0.,24.0,0.,24.0,0.,24.0,0.,24.0
1989-08-27T15:46:32.430 ,0,1,0.,24.0,0.,24.0,0.,24.0,0.,24.0
1989-08-27T15:46:56.430 ,0,0,0.,24.0,0.,24.0,0.,24.0,0.,24.0
1989-08-27T15:47:20.430 ,1,1,0.,24.0,0.,24.0,0.,24.0,0.,24.0
1989-08-27T15:47:44.430 ,1,0,0.,24.0,0.,24.0,0.,24.0,0.,24.0
1989-08-27T15:48:08.430 ,2,1,0.,24.0,0.,24.0,0.,24.0,0.,24.0
1989-08-27T15:48:32.430 ,2,0,0.,24.0,0.,24.0,0.,24.0,0.,24.0
1989-08-27T15:48:56.430 ,3,1,0.,24.0,0.,24.0,0.,24.0,0.,24.0
1989-08-27T15:49:20.430 ,3,0,0.,24.0,0.,24.0,0.,24.0,0.,24.0
1989-08-27T15:49:44.430 ,4,1,0.,24.0,0.,24.0,0.,24.0,0.,24.0
1989-08-27T15:50:08.430 ,4,0,0.,24.0,0.,24.0,0.,24.0,0.,24.0
1989-08-27T15:50:32.430 ,5,1,0.,24.0,0.,24.0,0.,24.0,0.,24.0
1989-08-27T15:50:56.430 ,5,0,0.,24.0,0.,24.0,0.,24.0,0.,24.0
1989-08-27T15:51:20.430 ,6,1,0.,24.0,0.,24.0,0.,24.0,0.,24.0
1989-08-27T15:51:44.430 ,6,0,0.,24.0,0.,24.0,0.,24.0,0.,24.0
1989-08-27T15:52:08.430 ,7,1,0.,24.0,0.,24.0,0.,24.0,0.,24.0
1989-08-27T15:52:32.430 ,7,0,0.,24.0,0.,24.0,0.,24.0,0.,24.0
1989-08-27T15:52:56.430 ,7,1,0.,24.0,0.,24.0,0.,24.0,0.,24.0
1989-08-27T15:53:20.430 ,7,0,0.,24.0,0.,24.0,0.,24.0,0.,24.0
1989-08-27T15:53:44.430 ,6,1,0.,24.0,0.,24.0,0.,24.0,0.,24.0
1989-08-27T15:54:08.430 ,6,0,0.,24.0,0.,24.0,0.,24.0,0.,24.0
1989-08-27T15:54:32.430 ,5,1,0.,24.0,0.,24.0,0.,24.0,0.,24.0
1989-08-27T15:54:56.430 ,5,0,0.,24.0,0.,24.0,0.,24.0,0.,24.0
1989-08-27T15:55:20.430 ,4,1,0.,24.0,0.,24.0,0.,24.0,0.,24.0
1989-08-27T15:55:44.430 ,4,0,0.,24.0,0.,24.0,0.,24.0,0.,24.0
1989-08-27T15:56:08.430 ,3,1,0.,24.0,0.,24.0,0.,24.0,0.,24.0
1989-08-27T15:56:32.430 ,3,0,0.,24.0,0.,24.0,0.,24.0,0.,24.0
1989-08-27T15:56:56.430 ,2,1,0.,24.0,0.,24.0,0.,24.0,0.,24.0
1989-08-27T15:57:20.430 ,2,0,0.,24.0,0.,24.0,0.,24.0,0.,24.0
1989-08-27T15:57:44.430 ,1,1,0.,24.0,0.,24.0,0.,24.0,0.,24.0
1989-08-27T15:58:08.430 ,1,0,0.,24.0,0.,24.0,0.,24.0,0.,24.0
1989-08-27T15:58:32.430 ,0,1,0.,24.0,0.,24.0,0.,24.0,0.,24.0
1989-08-27T15:58:56.430 ,0,0,0.,24.0,0.,24.0,0.,24.0,0.,24.0
1989-08-27T15:59:20.430 ,0,1,0.,24.0,0.,24.0,0.,24.0,0.,24.0
1989-08-27T15:59:44.430 ,0,0,0.,24.0,0.,24.0,0.,24.0,0.,24.0
1989-08-27T16:00:08.430 ,1,1,0.,24.0,0.,24.0,0.,24.0,0.,24.0
1989-08-27T16:00:32.430 ,1,0,0.,24.0,0.,24.0,0.,24.0,0.,24.0
1989-08-27T16:00:56.430 ,2,1,0.,24.0,0.,24.0,0.,24.0,0.,24.0
1989-08-27T16:01:20.430 ,2,0,0.,24.0,0.,24.0,0.,24.0,0.,24.0
1989-08-27T16:01:44.430 ,3,1,0.,24.0,0.,24.0,0.,24.0,0.,24.0
1989-08-27T16:02:08.430 ,3,0,0.,24.0,0.,24.0,0.,24.0,0.,24.0
1989-08-27T16:02:32.430 ,4,1,0.,24.0,0.,24.0,0.,24.0,0.,24.0
1989-08-27T16:02:56.430 ,4,0,0.,24.0,0.,24.0,0.,24.0,0.,24.0
1989-08-27T16:03:20.430 ,5,1,0.,24.0,0.,24.0,0.,24.0,0.,24.0
1989-08-27T16:03:44.430 ,5,0,0.,24.0,0.,24.0,0.,24.0,0.,24.0
1989-08-27T16:04:08.430 ,6,1,0.,24.0,0.,24.0,0.,24.0,0.,24.0
1989-08-27T16:04:32.430 ,6,0,0.,24.0,0.,24.0,0.,24.0,0.,24.0
1989-08-27T16:04:56.430 ,7,1,0.,24.0,0.,24.0,0.,24.0,0.,24.0
1989-08-27T16:05:20.430 ,7,0,0.,24.0,0.,24.0,0.,24.0,0.,24.0
1989-08-27T16:05:44.430 ,7,1,0.,24.0,0.,24.0,0.,24.0,0.,24.0
1989-08-27T16:06:08.430 ,7,0,0.,24.0,0.,24.0,0.,24.0,0.,24.0
1989-08-27T16:06:32.430 ,6,1,0.,24.0,0.,24.0,0.,24.0,0.,24.0
1989-08-27T16:06:56.430 ,6,0,0.,24.0,0.,24.0,0.,24.0,0.,24.0
1989-08-27T16:07:20.430 ,5,1,0.,24.0,0.,24.0,0.,24.0,0.,24.0
1989-08-27T16:07:44.430 ,5,0,0.,24.0,0.,24.0,0.,24.0,0.,24.0
1989-08-27T16:08:08.430 ,4,1,0.,24.0,0.,24.0,0.,24.0,0.,24.0
1989-08-27T16:08:32.430 ,4,0,0.,24.0,0.,24.0,0.,24.0,0.,24.0
1989-08-27T16:08:56.430 ,3,1,0.,24.0,0.,24.0,0.,24.0,0.,24.0
1989-08-27T16:09:20.430 ,3,0,0.,24.0,0.,24.0,0.,24.0,0.,24.0
1989-08-27T16:09:44.430 ,2,1,0.,24.0,0.,24.0,0.,24.0,0.,24.0
1989-08-27T16:10:08.430 ,2,0,0.,24.0,0.,24.0,0.,24.0,0.,24.0
1989-08-27T16:10:32.430 ,1,1,0.,24.0,0.,24.0,0.,24.0,0.,24.0
1989-08-27T16:10:56.430 ,1,0,0.,24.0,0.,24.0,0.,24.0,0.,24.0
1989-08-27T16:11:20.430 ,0,1,0.,24.0,0.,24.0,0.,24.0,0.,24.0
1989-08-27T16:11:44.430 ,0,0,0.,24.0,0.,24.0,0.,24.0,0.,24.0
1989-08-27T16:12:08.430 ,0,1,0.,24.0,0.,24.0,0.,24.0,0.,24.0
1989-08-27T16:12:32.430 ,0,0,0.,24.0,0.,24.0,0.,24.0,0.,24.0
1989-08-27T16:12:56.430 ,1,1,0.,24.0,0.,24.0,0.,24.0,0.,24.0
1989-08-27T16:13:20.430 ,1,0,0.,24.0,0.,24.0,0.,24.0,0.,24.0
1989-08-27T16:13:44.430 ,2,1,0.,24.0,0.,24.0,0.,24.0,0.,24.0
1989-08-27T16:14:08.430 ,2,0,0.,24.0,0.,24.0,0.,24.0,0.,24.0
1989-08-27T16:14:32.430 ,3,1,0.,24.0,0.,24.0,0.,24.0,0.,24.0
1989-08-27T16:14:56.430 ,3,0,0.,24.0,0.,24.0,0.,24.0,0.,24.0
1989-08-27T16:15:20.430 ,4,1,0.,24.0,0.,24.0,0.,24.0,0.,24.0
1989-08-27T16:15:44.430 ,4,0,0.,24.0,0.,24.0,0.,24.0,0.,24.0
1989-08-27T16:16:08.430 ,5,1,0.,24.0,0.,24.0,0.,24.0,0.,24.0
1989-08-27T16:16:32.430 ,0,0,0.,24.0,0.,24.0,0.,24.0,0.,24.0
1989-08-27T16:17:40.230 ,0,0,,0,,0,,0,,0
1989-08-27T16:17:44.430 ,7,1,0.,24.0,0.,24.0,0.,24.0,0.,24.0
1989-08-27T16:18:08.430 ,7,0,0.,24.0,0.,24.0,0.,24.0,0.,24.0
1989-08-27T16:18:32.430 ,7,1,0.,24.0,0.,24.0,0.,24.0,0.,24.0
1989-08-27T16:18:56.430 ,7,0,0.,24.0,0.,24.0,0.,24.0,0.,24.0
1989-08-27T16:19:20.430 ,6,1,0.,24.0,0.,24.0,0.,24.0,0.,24.0
1989-08-27T16:19:44.430 ,6,0,0.,24.0,0.,24.0,0.,24.0,0.,24.0
1989-08-27T16:20:08.430 ,5,1,0.,24.0,0.,24.0,0.,24.0,0.,24.0
1989-08-27T16:20:32.430 ,5,0,0.,24.0,0.,24.0,0.,24.0,0.,24.0
1989-08-27T16:20:56.430 ,4,1,0.,24.0,0.,24.0,0.,24.0,0.,24.0
1989-08-27T16:21:20.430 ,4,0,0.,24.0,0.,24.0,0.,24.0,0.,24.0
1989-08-27T16:21:44.430 ,3,1,0.,24.0,0.,24.0,0.,24.0,0.,24.0
1989-08-27T16:22:08.430 ,3,0,0.,24.0,0.,24.0,0.,24.0,0.,24.0
1989-08-27T16:22:32.430 ,2,1,0.,24.0,0.,24.0,0.,24.0,0.,24.0
1989-08-27T16:22:56.430 ,2,0,0.,24.0,0.,24.0,0.,24.0,0.,24.0
1989-08-27T16:23:20.430 ,1,1,0.,24.0,0.,24.0,0.,24.0,0.,24.0
1989-08-27T16:23:44.430 ,1,0,0.,24.0,0.,24.0,0.,24.0,0.,24.0
1989-08-27T16:24:08.430 ,0,1,0.,24.0,0.,24.0,0.,24.0,0.,24.0
1989-08-27T16:24:32.430 ,0,0,0.,24.0,0.,24.0,0.,24.0,0.,24.0
1989-08-27T16:24:56.430 ,0,1,0.,24.0,0.,24.0,0.,24.0,0.,24.0
1989-08-27T16:25:20.430 ,0,0,0.,24.0,0.,24.0,0.,24.0,0.,24.0
1989-08-27T16:25:44.430 ,1,1,0.,24.0,0.,24.0,0.,24.0,0.,24.0
1989-08-27T16:26:08.430 ,1,0,0.,24.0,0.,24.0,0.,24.0,0.,24.0
1989-08-27T16:26:32.430 ,2,1,0.,24.0,0.,24.0,0.,24.0,0.,24.0
1989-08-27T16:26:56.430 ,2,0,0.,24.0,0.,24.0,0.,24.0,0.,24.0
1989-08-27T16:27:20.430 ,3,1,0.,24.0,0.,24.0,0.,24.0,0.,24.0
1989-08-27T16:27:44.430 ,3,0,0.,24.0,0.,24.0,0.,24.0,0.,24.0
1989-08-27T16:28:08.430 ,4,1,0.,24.0,0.,24.0,0.,24.0,0.,24.0
1989-08-27T16:28:32.430 ,4,0,0.,24.0,0.,24.0,0.,24.0,0.,24.0
1989-08-27T16:28:56.430 ,5,1,0.,24.0,0.,24.0,0.,24.0,0.,24.0
1989-08-27T16:29:20.430 ,5,0,0.,24.0,0.,24.0,0.,24.0,0.,24.0
1989-08-27T16:29:44.430 ,6,1,0.,24.0,0.,24.0,0.,24.0,0.,24.0
1989-08-27T16:30:08.430 ,6,0,0.,24.0,0.,24.0,0.,24.0,0.,24.0
1989-08-27T16:30:32.430 ,7,1,0.,24.0,0.,24.0,0.,24.0,0.,24.0
1989-08-27T16:30:56.430 ,7,0,0.,24.0,0.,24.0,0.,24.0,0.,24.0
1989-08-27T16:31:20.430 ,7,1,0.,24.0,0.,24.0,0.,24.0,0.,24.0
1989-08-27T16:31:44.430 ,7,0,0.,24.0,0.,24.0,0.,24.0,0.,24.0
1989-08-27T16:32:08.430 ,6,1,0.,24.0,0.,24.0,0.,24.0,0.,24.0
1989-08-27T16:32:32.430 ,6,0,0.,24.0,0.,24.0,0.,24.0,0.,24.0
1989-08-27T16:32:56.430 ,5,1,0.,24.0,0.,24.0,0.,24.0,0.,24.0
1989-08-27T16:33:20.430 ,5,0,0.,24.0,0.,24.0,0.,24.0,0.,24.0
1989-08-27T16:33:44.430 ,4,1,0.,24.0,0.,24.0,0.,24.0,0.,24.0
1989-08-27T16:34:08.430 ,4,0,0.,24.0,0.,24.0,0.,24.0,0.,24.0
1989-08-27T16:34:32.430 ,3,1,0.,24.0,0.,24.0,0.,24.0,0.,24.0
1989-08-27T16:34:56.430 ,3,0,0.,24.0,0.,24.0,0.,24.0,0.,24.0
1989-08-27T16:35:20.430 ,2,1,0.,24.0,0.,24.0,0.,24.0,0.,24.0
1989-08-27T16:35:44.430 ,2,0,0.,24.0,0.,24.0,0.,24.0,0.,24.0
1989-08-27T16:36:08.430 ,1,1,0.,24.0,0.,24.0,0.,24.0,0.,24.0
1989-08-27T16:36:32.430 ,1,0,0.,24.0,0.,24.0,0.,24.0,0.,24.0
1989-08-27T16:36:56.430 ,0,1,0.,24.0,0.,24.0,0.,24.0,0.,24.0
1989-08-27T16:37:20.430 ,0,0,0.,24.0,0.,24.0,0.,24.0,0.,24.0
1989-08-27T16:37:44.430 ,0,1,0.,24.0,0.,24.0,0.,24.0,0.,24.0
1989-08-27T16:38:08.430 ,0,0,0.,24.0,0.,24.0,0.,24.0,0.,24.0
1989-08-27T16:38:32.430 ,1,1,0.,24.0,0.,24.0,0.,24.0,0.,24.0
1989-08-27T16:38:56.430 ,1,0,0.,24.0,0.,24.0,0.,24.0,0.,24.0
1989-08-27T16:39:20.430 ,2,1,0.,24.0,0.,24.0,0.,24.0,0.,24.0
1989-08-27T16:39:44.430 ,2,0,0.,24.0,0.,24.0,0.,24.0,0.,24.0
1989-08-27T16:40:08.430 ,3,1,0.,24.0,0.,24.0,0.,24.0,0.,24.0
1989-08-27T16:40:32.430 ,3,0,0.,24.0,0.,24.0,0.,24.0,0.,24.0
1989-08-27T16:40:56.430 ,4,1,0.,24.0,0.,24.0,0.,24.0,0.,24.0
1989-08-27T16:41:20.430 ,4,0,0.,24.0,0.,24.0,0.,24.0,0.,24.0
1989-08-27T16:41:44.430 ,5,1,0.,24.0,0.,24.0,0.,24.0,0.,24.0
1989-08-27T16:42:08.430 ,5,0,0.,24.0,0.,24.0,0.,24.0,0.,24.0
1989-08-27T16:42:32.430 ,6,1,0.,24.0,0.,24.0,0.,24.0,0.,24.0
1989-08-27T16:42:56.430 ,6,0,0.,24.0,0.,24.0,0.,24.0,0.,24.0
1989-08-27T16:43:20.430 ,7,1,0.,24.0,0.,24.0,0.,24.0,0.,24.0
1989-08-27T16:43:44.430 ,7,0,0.,24.0,0.,24.0,0.,24.0,0.,24.0
1989-08-27T16:44:08.430 ,7,1,0.,24.0,0.,24.0,0.,24.0,0.,24.0
1989-08-27T16:44:32.430 ,7,0,0.,24.0,0.,24.0,0.,24.0,0.,24.0
1989-08-27T16:44:56.430 ,6,1,0.,24.0,0.,24.0,0.,24.0,0.,24.0
1989-08-27T16:45:20.430 ,6,0,0.,24.0,0.,24.0,0.,24.0,0.,24.0
1989-08-27T16:45:44.430 ,5,1,0.,24.0,0.,24.0,0.,24.0,0.,24.0
1989-08-27T16:46:08.430 ,5,0,0.,24.0,0.,24.0,0.,24.0,0.,24.0
1989-08-27T16:46:32.430 ,4,1,0.,24.0,0.,24.0,0.,24.0,0.,24.0
1989-08-27T16:46:56.430 ,4,0,0.,24.0,0.,24.0,0.,24.0,0.,24.0
1989-08-27T16:47:20.430 ,3,1,0.,24.0,0.,24.0,0.,24.0,0.,24.0
1989-08-27T16:47:44.430 ,3,0,0.,24.0,0.,24.0,0.,24.0,0.,24.0
1989-08-27T16:48:08.430 ,2,1,0.,24.0,0.,24.0,0.,24.0,0.,24.0
1989-08-27T16:48:32.430 ,2,0,0.,24.0,0.,24.0,0.,24.0,0.,24.0
1989-08-27T16:48:56.430 ,1,1,0.,24.0,0.,24.0,0.,24.0,0.,24.0
1989-08-27T16:49:20.430 ,1,0,0.,24.0,0.,24.0,0.,24.0,0.,24.0
1989-08-27T16:49:44.430 ,0,1,0.,24.0,0.,24.0,0.,24.0,0.,24.0
1989-08-27T16:50:08.430 ,0,0,0.,24.0,0.,24.0,0.,24.0,0.,24.0
1989-08-27T16:50:32.430 ,0,1,0.,24.0,0.,24.0,0.,24.0,0.,24.0
1989-08-27T16:50:56.430 ,0,0,0.,24.0,0.,24.0,0.,24.0,0.,24.0
1989-08-27T16:51:20.430 ,1,1,0.,24.0,0.,24.0,0.,24.0,0.,24.0
1989-08-27T16:51:44.430 ,1,0,0.,24.0,0.,24.0,0.,24.0,0.,24.0
1989-08-27T16:52:08.430 ,2,1,0.,24.0,0.,24.0,0.,24.0,0.,24.0
1989-08-27T16:52:32.430 ,2,0,0.,24.0,0.,24.0,0.,24.0,0.,24.0
1989-08-27T16:52:56.430 ,3,1,0.,24.0,0.,24.0,0.,24.0,0.,24.0
1989-08-27T16:53:20.430 ,3,0,0.,24.0,0.,24.0,0.,24.0,0.,24.0
1989-08-27T16:53:44.430 ,4,1,0.,24.0,0.,24.0,0.,24.0,0.,24.0
1989-08-27T16:54:08.430 ,4,0,0.,24.0,0.,24.0,0.,24.0,0.,24.0
1989-08-27T16:54:32.430 ,5,1,0.,24.0,0.,24.0,0.,24.0,0.,24.0
1989-08-27T16:54:56.430 ,5,0,0.,24.0,0.,24.0,0.,24.0,0.,24.0
1989-08-27T16:55:20.430 ,6,1,0.,24.0,0.,24.0,0.,24.0,0.,24.0
1989-08-27T16:55:44.430 ,6,0,0.,24.0,0.,24.0,0.,24.0,0.,24.0
1989-08-27T16:56:08.430 ,7,1,0.,24.0,0.,24.0,0.,24.0,0.,24.0
1989-08-27T16:56:32.430 ,7,0,0.,24.0,0.,24.0,0.,24.0,0.,24.0
1989-08-27T16:56:56.430 ,7,1,0.,24.0,0.,24.0,0.,24.0,0.,24.0
1989-08-27T16:57:20.430 ,7,0,0.,24.0,0.,24.0,0.,24.0,0.,24.0
1989-08-27T16:57:44.430 ,6,1,0.,24.0,0.,24.0,0.,24.0,0.,24.0
1989-08-27T16:58:08.430 ,6,0,0.,24.0,0.,24.0,0.,24.0,0.,24.0
1989-08-27T16:58:32.430 ,5,1,0.,24.0,0.,24.0,0.,24.0,0.,24.0
1989-08-27T16:58:56.430 ,5,0,0.,24.0,0.,24.0,0.,24.0,0.,24.0
1989-08-27T16:59:20.430 ,0,0,,0,,0,,0,,0
1989-08-27T16:59:44.430 ,0,0,,0,,0,,0,,0
1989-08-27T16:59:22.230 ,4,1,0.,24.0,0.,24.0,0.,24.0,0.,24.0
1989-08-27T16:59:44.430 ,4,0,0.,24.0,0.,24.0,0.,24.0,0.,24.0
1989-08-27T17:00:08.430 ,3,1,0.,24.0,0.,24.0,0.,24.0,0.,24.0
1989-08-27T17:00:32.430 ,3,0,0.,24.0,0.,24.0,0.,24.0,0.,24.0
1989-08-27T17:00:56.430 ,2,1,0.,24.0,0.,24.0,0.,24.0,0.,24.0
1989-08-27T17:01:20.430 ,2,0,0.,24.0,0.,24.0,0.,24.0,0.,24.0
1989-08-27T17:01:44.430 ,1,1,0.,24.0,0.,24.0,0.,24.0,0.,24.0
1989-08-27T17:02:08.430 ,1,0,0.,24.0,0.,24.0,0.,24.0,0.,24.0
1989-08-27T17:02:32.430 ,0,0,0.,24.0,0.,24.0,0.,24.0,0.,24.0
1989-08-27T17:02:56.430 ,0,0,,0,,0,,0,,0
1989-08-27T17:02:42.630 ,0,0,,0,,0,,0,,0
1989-08-27T17:02:56.430 ,0,0,0.,24.0,0.,24.0,0.,24.0,0.,24.0
1989-08-27T17:03:20.430 ,0,1,0.,24.0,0.,24.0,0.,24.0,0.,24.0
1989-08-27T17:03:44.430 ,0,0,0.,24.0,0.,24.0,0.,24.0,0.,24.0
1989-08-27T17:04:08.430 ,1,1,0.,24.0,0.,24.0,0.,24.0,0.,24.0
1989-08-27T17:04:32.430 ,1,0,0.,24.0,0.,24.0,0.,24.0,0.,24.0
1989-08-27T17:04:56.430 ,2,1,0.,24.0,0.,24.0,0.,24.0,0.,24.0
1989-08-27T17:05:20.430 ,2,0,0.,24.0,0.,24.0,0.,24.0,0.,24.0
1989-08-27T17:05:44.430 ,3,1,0.,24.0,0.,24.0,0.,24.0,0.,24.0
1989-08-27T17:06:08.430 ,3,0,0.,24.0,0.,24.0,0.,24.0,0.,24.0
1989-08-27T17:06:32.430 ,4,1,0.,24.0,0.,24.0,0.,24.0,0.,24.0
1989-08-27T17:06:56.430 ,4,0,0.,24.0,0.,24.0,0.,24.0,0.,24.0
1989-08-27T17:07:20.430 ,5,1,0.,24.0,0.,24.0,0.,24.0,0.,24.0
1989-08-27T17:07:44.430 ,5,0,0.,24.0,0.,24.0,0.,24.0,0.,24.0
1989-08-27T17:08:08.430 ,6,1,0.,24.0,0.,24.0,0.,24.0,0.,24.0
1989-08-27T17:08:32.430 ,6,0,0.,24.0,0.,24.0,0.,24.0,0.,24.0
1989-08-27T17:08:56.430 ,7,1,0.,24.0,0.,24.0,0.,24.0,0.,24.0
1989-08-27T17:09:20.430 ,7,0,0.,24.0,0.,24.0,0.,24.0,0.,24.0
1989-08-27T17:09:44.430 ,7,1,0.,24.0,0.,24.0,0.,24.0,0.,24.0
1989-08-27T17:10:08.430 ,7,0,0.,24.0,0.,24.0,0.,24.0,0.,24.0
1989-08-27T17:10:32.430 ,6,1,0.,24.0,0.,24.0,0.,24.0,0.,24.0
1989-08-27T17:10:56.430 ,6,0,0.,24.0,0.,24.0,0.,24.0,0.,24.0
1989-08-27T17:11:20.430 ,5,1,0.,24.0,0.,24.0,0.,24.0,0.,24.0
1989-08-27T17:11:44.430 ,5,0,0.,24.0,0.,24.0,0.,24.0,0.,24.0
1989-08-27T17:12:08.430 ,4,1,0.,24.0,0.,24.0,0.,24.0,0.,24.0
1989-08-27T17:12:32.430 ,4,0,0.,24.0,0.,24.0,0.,24.0,0.,24.0
1989-08-27T17:12:56.430 ,3,1,0.,24.0,0.,24.0,0.,24.0,0.,24.0
1989-08-27T17:13:20.430 ,3,0,0.,24.0,0.,24.0,0.,24.0,0.,24.0
1989-08-27T17:13:44.430 ,2,1,0.,24.0,0.,24.0,0.,24.0,0.,24.0
1989-08-27T17:14:08.430 ,2,0,0.,24.0,0.,24.0,0.,24.0,0.,24.0
1989-08-27T17:14:32.430 ,1,1,0.,24.0,0.,24.0,0.,24.0,0.,24.0
1989-08-27T17:14:56.430 ,1,0,0.,24.0,0.,24.0,0.,24.0,0.,24.0
1989-08-27T17:15:20.430 ,0,1,0.,24.0,0.,24.0,0.,24.0,0.,24.0
1989-08-27T17:15:44.430 ,0,0,0.,24.0,0.,24.0,0.,24.0,0.,24.0
1989-08-27T17:16:08.430 ,0,1,0.,24.0,0.,24.0,0.,24.0,0.,24.0
1989-08-27T17:16:32.430 ,0,0,0.,24.0,0.,24.0,0.,24.0,0.,24.0
1989-08-27T17:16:56.430 ,1,1,0.,24.0,0.,24.0,0.,24.0,0.,24.0
1989-08-27T17:17:20.430 ,1,0,0.,24.0,0.,24.0,0.,24.0,0.,24.0
1989-08-27T17:17:44.430 ,2,1,0.,24.0,0.,24.0,0.,24.0,0.,24.0
1989-08-27T17:18:08.430 ,2,0,0.,24.0,0.,24.0,0.,24.0,0.,24.0
1989-08-27T17:18:32.430 ,3,1,0.,24.0,0.,24.0,0.,24.0,0.,24.0
1989-08-27T17:18:56.430 ,3,0,0.,24.0,0.,24.0,0.,24.0,0.,24.0
1989-08-27T17:19:20.430 ,4,1,0.,24.0,0.,24.0,0.,24.0,0.,24.0
1989-08-27T17:19:44.430 ,4,0,0.,24.0,0.,24.0,0.,24.0,0.,24.0
1989-08-27T17:20:08.430 ,5,1,0.,24.0,0.,24.0,0.,24.0,0.,24.0
1989-08-27T17:20:32.430 ,5,0,0.,24.0,0.,24.0,0.,24.0,0.,24.0
1989-08-27T17:20:56.430 ,6,1,0.,24.0,0.,24.0,0.,24.0,0.,24.0
1989-08-27T17:21:20.430 ,6,0,0.,24.0,0.,24.0,0.,24.0,0.,24.0
1989-08-27T17:21:44.430 ,7,1,0.,24.0,0.,24.0,0.,24.0,0.,24.0
1989-08-27T17:22:08.430 ,7,0,0.,24.0,0.,24.0,0.,24.0,0.,24.0
1989-08-27T17:22:32.430 ,7,1,0.,24.0,0.,24.0,0.,24.0,0.,24.0
1989-08-27T17:22:56.430 ,7,0,0.,24.0,0.,24.0,0.,24.0,0.,24.0
1989-08-27T17:23:20.430 ,6,1,0.,24.0,0.,24.0,0.,24.0,0.,24.0
1989-08-27T17:23:44.430 ,6,0,0.,24.0,0.,24.0,0.,24.0,0.,24.0
1989-08-27T17:24:08.430 ,5,1,0.,24.0,0.,24.0,0.,24.0,0.,24.0
1989-08-27T17:24:32.430 ,5,0,0.,24.0,0.,24.0,0.,24.0,0.,24.0
1989-08-27T17:24:56.430 ,4,1,0.,24.0,0.,24.0,0.,24.0,0.,24.0
1989-08-27T17:25:20.430 ,4,0,0.,24.0,0.,24.0,0.,24.0,0.,24.0
1989-08-27T17:25:44.430 ,3,1,0.,24.0,0.,24.0,0.,24.0,0.,24.0
1989-08-27T17:26:08.430 ,3,0,0.,24.0,0.,24.0,0.,24.0,0.,24.0
1989-08-27T17:26:32.430 ,2,1,0.,24.0,0.,24.0,0.,24.0,0.,24.0
1989-08-27T17:26:56.430 ,2,0,0.,24.0,0.,24.0,0.,24.0,0.,24.0
1989-08-27T17:27:20.430 ,1,1,0.,24.0,0.,24.0,0.,24.0,0.,24.0
1989-08-27T17:27:44.430 ,1,0,0.,24.0,0.,24.0,0.,24.0,0.,24.0
1989-08-27T17:28:08.430 ,0,1,0.,24.0,0.,24.0,0.,24.0,0.,24.0
1989-08-27T17:28:32.430 ,0,0,0.,24.0,0.,24.0,0.,24.0,0.,24.0
1989-08-27T17:28:56.430 ,0,1,0.,24.0,0.,24.0,0.,24.0,0.,24.0
1989-08-27T17:29:20.430 ,0,0,0.,24.0,0.,24.0,0.,24.0,0.,24.0
1989-08-27T17:29:44.430 ,1,1,0.,24.0,0.,24.0,0.,24.0,0.,24.0
1989-08-27T17:30:08.430 ,1,0,0.,24.0,0.,24.0,0.,24.0,0.,24.0
1989-08-27T17:30:32.430 ,2,1,0.,24.0,0.,24.0,0.,24.0,0.,24.0
1989-08-27T17:30:56.430 ,2,0,0.,24.0,0.,24.0,0.,24.0,0.,24.0
1989-08-27T17:31:20.430 ,3,1,0.,24.0,0.,24.0,0.,24.0,0.,24.0
1989-08-27T17:31:44.430 ,3,0,0.,24.0,0.,24.0,0.,24.0,0.,24.0
1989-08-27T17:32:08.430 ,4,1,0.,24.0,0.,24.0,0.,24.0,0.,24.0
1989-08-27T17:32:32.430 ,4,0,0.,24.0,0.,24.0,0.,24.0,0.,24.0
1989-08-27T17:32:56.430 ,5,1,0.,24.0,0.,24.0,0.,24.0,0.,24.0
1989-08-27T17:33:20.430 ,5,0,0.,24.0,0.,24.0,0.,24.0,0.,24.0